EW2664 Weather Reports


Display with metric or nautical units.
time (UTC)temp
F
wind
direction
speed
MPH
gust
MPH
rain 1hr
in
rain 24hr
in
rain mn
in
humidity
%
barometer
mb
20260509113027 74 360 0.0 0.0 0.00 0.00 0.00 86 1014.3
20260509111520 74 360 0.0 0.0 0.00 0.00 0.00 87 1014.2
20260509110023 73 360 0.0 0.0 0.00 0.00 0.00 89 1014.1
20260509104524 73 360 0.0 0.0 0.00 0.00 0.00 88 1013.9
20260509103026 73 352 0.0 0.0 0.00 0.00 0.00 88 1013.8
20260509101546 73 352 0.0 0.0 0.00 0.00 0.00 88 1013.8
20260509100025 73 360 0.0 0.0 0.00 0.00 0.00 88 1013.8
20260509094525 73 360 0.0 0.0 0.00 0.00 0.00 88 1013.6
20260509093027 73 31 0.0 0.0 0.00 0.00 0.00 89 1013.7
20260509091527 74 273 0.0 0.0 0.00 0.00 0.00 89 1013.6
20260509090032 74 271 0.0 2.0 0.00 0.00 0.00 88 1013.5
20260509084526 74 338 0.0 2.0 0.00 0.00 0.00 88 1013.5
20260509083038 74 284 0.0 0.0 0.00 0.00 0.00 88 1013.5
20260509081512 75 273 0.0 2.0 0.00 0.00 0.00 88 1013.5
20260509080021 76 294 0.0 2.0 0.00 0.00 0.00 87 1013.4
20260509074521 77 252 0.0 2.0 0.00 0.00 0.00 87 1013.5
20260509073004 77 184 0.0 0.0 0.00 0.00 0.00 87 1013.6
20260509071511 77 136 0.0 0.0 0.00 0.00 0.00 87 1013.6
20260509070016 77 136 0.0 0.0 0.00 0.00 0.00 87 1013.7
20260509064522 78 136 0.0 0.0 0.00 0.00 0.00 86 1013.7
20260509063025 78 136 0.0 0.0 0.00 0.00 0.00 86 1013.8
20260509061508 78 136 0.0 0.0 0.00 0.00 0.00 86 1013.9
20260509060014 78 136 0.0 0.0 0.00 0.00 0.00 86 1013.9
20260509054517 79 136 0.0 1.0 0.00 0.00 0.00 85 1014.1
20260509053028 79 136 0.0 0.0 0.00 0.00 0.00 85 1014.1
20260509051505 79 136 0.0 0.0 0.00 0.00 0.00 85 1014.3
20260509050017 79 136 0.0 2.0 0.00 0.00 0.00 85 1014.3
20260509044520 79 138 0.0 0.0 0.00 0.00 0.00 84 1014.4
20260509043024 79 99 0.0 0.0 0.00 0.00 0.00 84 1014.5
20260509041524 80 119 0.0 2.0 0.00 0.00 0.00 83 1014.6
20260509040024 80 163 0.0 2.0 0.00 0.00 0.00 83 1014.8
20260509034517 80 109 0.0 0.0 0.00 0.00 0.00 83 1015.0
20260509033018 80 159 0.0 0.0 0.00 0.00 0.00 82 1014.9
20260509031535 80 122 0.0 2.0 0.00 0.00 0.00 82 1014.7
20260509030042 80 111 0.0 0.0 0.00 0.00 0.00 82 1014.7
20260509024514 81 92 0.0 0.0 0.00 0.00 0.00 81 1014.7
20260509023021 81 133 0.0 0.0 0.00 0.00 0.00 80 1014.6
20260509021533 81 86 0.0 0.0 0.00 0.00 0.00 79 1014.4
20260509020027 81 103 0.0 0.0 0.00 0.00 0.00 78 1014.3
20260509014508 81 159 0.0 2.0 0.00 0.00 0.00 77 1014.2
20260509013017 81 101 0.0 0.0 0.00 0.00 0.00 76 1014.1
20260509011522 82 136 0.0 2.0 0.00 0.00 0.00 75 1013.9
20260509010003 82 155 0.0 1.0 0.00 0.00 0.00 74 1013.6
20260509004513 82 143 0.0 0.0 0.00 0.00 0.00 73 1013.4
20260509003014 83 96 0.0 3.0 0.00 0.00 0.00 71 1013.3
20260509001518 83 69 0.0 2.0 0.00 0.00 0.00 69 1013.1
20260509000024 83 57 1.0 4.0 0.00 0.00 0.00 68 1013.0
20260508234507 84 84 1.0 3.0 0.00 0.00 0.00 66 1012.9
20260508233010 84 90 1.0 5.0 0.00 0.00 0.00 65 1012.8
20260508231516 85 155 1.0 3.0 0.00 0.00 0.00 64 1012.5
20260508230020 86 183 0.0 7.0 0.00 0.00 0.00 63 1012.3
20260508224525 86 111 1.0 4.0 0.00 0.00 0.00 63 1012.3
20260508223015 87 352 1.0 8.0 0.00 0.00 0.00 62 1012.0
20260508221515 87 149 1.0 7.0 0.00 0.00 0.00 59 1012.1
20260508220020 88 67 2.0 6.0 0.00 0.00 0.00 57 1012.2
20260508214524 88 78 3.0 8.0 0.00 0.00 0.00 56 1012.2
20260508213019 89 100 1.0 5.0 0.00 0.00 0.00 56 1012.1
20260508211514 90 158 3.0 12.0 0.00 0.00 0.00 57 1012.0
20260508210027 90 115 3.0 9.0 0.00 0.00 0.00 55 1012.1
20260508204525 91 103 2.0 10.0 0.00 0.00 0.00 52 1012.3
20260508203028 91 107 1.0 9.0 0.00 0.00 0.00 52 1012.7
20260508201514 92 115 1.0 9.0 0.00 0.00 0.00 52 1012.8
20260508200024 93 32 2.0 7.0 0.00 0.00 0.00 44 1013.0
20260508194525 94 50 1.0 4.0 0.00 0.00 0.00 40 1013.0
20260508193026 93 28 2.0 6.0 0.00 0.00 0.00 43 1013.1
20260508191511 94 55 4.0 10.0 0.00 0.00 0.00 36 1013.2
20260508190019 93 172 1.0 3.0 0.00 0.00 0.00 38 1013.4
20260508184523 94 98 3.0 7.0 0.00 0.00 0.00 37 1013.6
20260508183030 94 150 1.0 3.0 0.00 0.00 0.00 38 1013.8
20260508181525 93 163 0.0 6.0 0.00 0.00 0.00 38 1014.1
20260508180019 93 114 2.0 6.0 0.00 0.00 0.00 37 1014.2
20260508174518 93 223 1.0 2.0 0.00 0.00 0.00 38 1014.5
20260508173021 91 55 2.0 7.0 0.00 0.00 0.00 38 1014.7
20260508171528 91 103 0.0 5.0 0.00 0.00 0.00 38 1014.8
20260508170028 91 96 2.0 7.0 0.00 0.00 0.00 38 1015.1
20260508164518 91 121 1.0 5.0 0.00 0.00 0.00 36 1015.3
20260508163029 90 60 1.0 4.0 0.00 0.00 0.00 38 1015.4
20260508161524 89 107 3.0 7.0 0.00 0.00 0.00 42 1015.8
20260508160026 89 205 0.0 6.0 0.00 0.00 0.00 45 1015.7
20260508154517 88 283 0.0 4.0 0.00 0.00 0.00 52 1016.0
20260508153019 87 26 2.0 4.0 0.00 0.00 0.00 54 1016.1
20260508151523 87 9 1.0 5.0 0.00 0.00 0.00 54 1016.1
20260508150047 86 310 1.0 4.0 0.00 0.00 0.00 61 1016.3
20260508144529 85 99 1.0 5.0 0.00 0.00 0.00 62 1016.1
20260508143017 84 315 2.0 5.0 0.00 0.00 0.00 63 1016.3
20260508141526 84 54 2.0 6.0 0.00 0.00 0.00 64 1016.2
20260508140028 83 36 2.0 9.0 0.00 0.00 0.00 65 1016.2
20260508134527 83 9 1.0 4.0 0.00 0.00 0.00 67 1016.3
20260508133028 82 344 1.0 5.0 0.00 0.00 0.00 67 1016.2
20260508131510 81 322 1.0 4.0 0.00 0.00 0.00 69 1016.1
20260508130004 80 352 1.0 3.0 0.00 0.00 0.00 71 1016.1
20260508124507 79 240 0.0 3.0 0.00 0.00 0.00 74 1016.1
20260508123014 77 5 1.0 3.0 0.00 0.00 0.00 75 1016.0
20260508121512 76 316 0.0 3.0 0.00 0.00 0.00 77 1015.8
20260508120004 74 286 0.0 3.0 0.00 0.00 0.00 79 1015.6
20260508114507 73 346 0.0 3.0 0.00 0.00 0.00 81 1015.4